星链-32781 (STARLINK-32781)

导读

STARLINK-32781是由美国发射的星链卫星,于2025年1月27日08:00升空,是SpaceX星链星座组网计划的组成部分。星链系统旨在构建全球卫星互联网,为偏远地区、海上、航空等场景提供宽带接入服务,该卫星入轨后将进一步拓展星链网络的全球覆盖范围与服务能力。

基本信息
目录编号:
62848
目录名称:
STARLINK-32781
国际标识:
2025-019V
轨道中心:
EARTH
卫星名称:
星链-32781
卫星全名:
星链-32781 (STARLINK-32781)
卫星状态:
在轨 (已飞行503 天)
发射日期:
2025-01-27 UTC
国别 :
美国 (US)
星等 :
--
轨道信息
数据来源 国际轨道数据
星历时间: 2026-06-14T02:16:31+0800
15小时前
查看轨道信息
半长轴: 6861.172km
偏心率: 0.0001395
轨道倾角: 42.998°
近地点辐角 248.369°
升交点赤经 266.442°
平近点角 111.701°
近地点: 482.077km
远地点: 483.993km
周期: 94.266分钟
每日圈数: 15.275848
详细信息
固有亮度:
5
最大亮度:
2.5
卫星平台:
Starlink V1.0
覆盖范围:
全球
运营商:
太空探索技术公司
运营商所在国:
美国
制造商(研发单位):
太空探索技术公司
制造商所在国:
美国
使用方式:
暂无
卫星简介
Starlink 计划是 SpaceX 推出的全球卫星互联网项目,通过发射低轨道卫星,为全球尤其是偏远地区提供高速、低延迟的互联网服务。自 2019 年起,Starlink 已部署数千颗卫星,旨在缩小全球数字鸿沟,推动互联网普及。该项目还为军事、航空等行业提供通信支持,带来广泛经济效益。
2D轨道图
3D轨道图
轨道高度分析图
轨道倾角分析图
轨道综合分析图
查看轨道综合分析图